Change the Weather History Date:

Tuesday, December 3, 2013

  Actual Average (KPCZ) Record (KPCZ)
Temperature  
Mean Temperature 32 °F -  
Max Temperature 33 °F 32 °F 61 °F (1962)
Min Temperature 32 °F 17 °F -6 °F (1985)
Degree Days  
Heating Degree Days 32    
Moisture  
Dew Point -    
Average Humidity    
Maximum Humidity    
Minimum Humidity    
Precipitation  
Precipitation 0.15 in - - ()
Sea Level Pressure  
Sea Level Pressure 29.76 in    
Wind  
Wind Speed 9 mph (ENE)    
Max Wind Speed 17 mph    
Max Gust Speed 24 mph    
Visibility 2 miles    
Events Rain , Snow    
Averages and records for this station are not official NWS values.
T = Trace of Precipitation, MM = Missing Value Source: NWS Daily Summary

Daily Weather History Graph

Daily Weather History Graph

Search for Another Location

Airport or City:

Trip Planner

Search our weather history database for the weather conditions in past years. The results will help you decide how hot, cold, wet, or windy it might be!

Date:

Astronomy

Dec. 03, 2013 Rise Set
Actual Time 7:14 AM CST 4:19 PM CST
Civil Twilight 6:41 AM CST 4:52 PM CST
Nautical Twilight 6:05 AM CST 5:28 PM CST
Astronomical Twilight 5:30 AM CST 6:03 PM CST
Moon 7:42 AM CST (12/3) 5:24 PM CST (12/3)
Length of Visible Light 10h 10m
Length of Day
9h 05m
New Moon, 1% of the Moon is Illuminated
Dec 3
New Moon
Dec 9
First Quarter
Dec 17
Full
Dec 25
Last Quarter
Jan 1
New

Hourly Weather History & Observations

Time (CST) Temp. Windchill Dew Point Humidity Pressure Visibility Wind Dir Wind Speed Gust Speed Precip Events Conditions
12:06 AM 33.8 °F 27.0 °F - N/A% 29.75 in 2.5 mi East 8.1 mph - 0.01 in Snow Light Snow
12:44 AM 33.8 °F 27.7 °F - N/A% 29.75 in 1.5 mi East 6.9 mph - 0.02 in Rain Light Rain
12:56 AM 32.9 °F 26.7 °F - N/A% 29.76 in 2.0 mi Variable 6.9 mph - 0.02 in Rain Light Rain
1:40 AM 33.8 °F 27.0 °F - N/A% 29.75 in 1.8 mi East 8.1 mph - 0.01 in Rain Light Rain
1:56 AM 32.9 °F 25.9 °F - N/A% 29.76 in 1.5 mi East 8.1 mph - 0.01 in Rain Light Rain
2:27 AM 33.8 °F 28.6 °F - N/A% 29.75 in 1.2 mi East 5.8 mph - 0.01 in Rain Light Rain
2:47 AM 33.8 °F 27.7 °F - N/A% 29.73 in 1.5 mi East 6.9 mph - 0.01 in Rain Light Rain
2:56 AM 32.9 °F 26.7 °F - N/A% 29.74 in 2.0 mi East 6.9 mph - 0.01 in Rain Light Rain
3:07 AM 33.8 °F 27.0 °F - N/A% 29.73 in 1.5 mi East 8.1 mph - 0.00 in Rain Light Rain
3:56 AM 32.9 °F 25.9 °F - N/A% 29.74 in 2.0 mi East 8.1 mph - 0.01 in Rain Light Rain
4:06 AM 33.8 °F 29.6 °F - N/A% 29.73 in 1.5 mi East 4.6 mph - 0.00 in Rain Light Rain
4:56 AM 32.9 °F 25.9 °F - N/A% 29.75 in 1.8 mi East 8.1 mph - 0.00 in   Overcast
5:56 AM 32.9 °F 25.3 °F - N/A% 29.75 in 1.5 mi East 9.2 mph - 0.01 in   Overcast
6:56 AM 32.9 °F 25.9 °F - N/A% 29.76 in 2.0 mi ENE 8.1 mph - N/A   Overcast
7:34 AM 33.8 °F 27.0 °F - N/A% 29.75 in 1.5 mi East 8.1 mph - N/A   Overcast
7:38 AM 33.8 °F 27.0 °F - N/A% 29.75 in 1.0 mi East 8.1 mph - N/A   Overcast
7:48 AM 33.8 °F 27.0 °F - N/A% 29.75 in 0.8 mi ENE 8.1 mph - N/A   Overcast
7:56 AM 32.9 °F 25.3 °F - N/A% 29.76 in 0.8 mi ENE 9.2 mph - N/A   Overcast
8:14 AM 33.8 °F 25.3 °F - N/A% 29.74 in 1.0 mi ENE 11.5 mph - N/A   Overcast
8:21 AM 33.8 °F 25.3 °F - N/A% 29.74 in 0.8 mi East 11.5 mph - N/A   Overcast
8:28 AM 33.8 °F 25.8 °F - N/A% 29.74 in 1.0 mi ENE 10.4 mph - N/A   Overcast
8:56 AM 32.9 °F 23.7 °F - N/A% 29.76 in 0.8 mi East 12.7 mph - N/A   Overcast
9:37 AM 33.8 °F 25.8 °F - N/A% 29.75 in 1.0 mi ENE 10.4 mph - N/A   Overcast
9:56 AM 32.9 °F 25.3 °F - N/A% 29.78 in 1.0 mi ENE 9.2 mph - N/A   Overcast
10:56 AM 32.9 °F 24.7 °F - N/A% 29.79 in 1.0 mi ENE 10.4 mph - N/A   Overcast
11:11 AM 33.8 °F 24.8 °F - N/A% 29.77 in 0.8 mi ENE 12.7 mph - N/A   Overcast
11:40 AM 33.8 °F 24.8 °F - N/A% 29.76 in 1.0 mi ENE 12.7 mph - N/A   Overcast
11:56 AM 32.9 °F 24.7 °F - N/A% 29.79 in 0.8 mi ENE 10.4 mph - N/A   Overcast
12:56 PM 32.9 °F 22.0 °F - N/A% 29.75 in 1.0 mi NE 17.3 mph 21.9 mph 0.00 in Rain Light Rain
1:32 PM 33.8 °F 25.3 °F - N/A% 29.73 in 1.2 mi ENE 11.5 mph 19.6 mph 0.00 in Rain Light Rain
1:56 PM 32.0 °F 21.2 °F - N/A% 29.75 in 1.2 mi ENE 16.1 mph 21.9 mph 0.01 in   Overcast
2:07 PM 32.0 °F 22.1 °F - N/A% 29.73 in 2.0 mi ENE 13.8 mph 23.0 mph 0.00 in   Overcast
2:56 PM 32.0 °F 23.0 °F - N/A% 29.75 in 3.0 mi ENE 11.5 mph 19.6 mph 0.02 in   Overcast
3:15 PM 32.0 °F 22.5 °F - N/A% 29.73 in 5.0 mi ENE 12.7 mph 24.2 mph 0.01 in   Overcast
3:56 PM 32.0 °F 23.0 °F - N/A% 29.76 in 10.0 mi NE 11.5 mph 16.1 mph 0.01 in   Overcast
4:56 PM - - - N/A% 29.75 in 5.0 mi NE 11.5 mph 19.6 mph 0.03 in Rain Light Rain
5:05 PM 32.0 °F 23.0 °F - N/A% 29.74 in 5.0 mi NE 11.5 mph - 0.00 in Rain Light Rain
5:56 PM 32.0 °F 23.6 °F - N/A% 29.78 in 2.5 mi NE 10.4 mph - 0.01 in   Overcast
6:07 PM 32.0 °F 23.6 °F - N/A% 29.76 in 3.0 mi NE 10.4 mph - 0.00 in   Overcast
6:56 PM 32.0 °F 22.1 °F - N/A% 29.79 in 10.0 mi ENE 13.8 mph - 0.01 in   Overcast
7:56 PM 32.0 °F 23.6 °F - N/A% 29.79 in 6.0 mi ENE 10.4 mph - N/A   Haze
8:56 PM 32.0 °F 23.0 °F - N/A% 29.81 in 3.0 mi ENE 11.5 mph - N/A   Overcast
9:56 PM 32.0 °F 24.2 °F - N/A% 29.80 in 3.0 mi NE 9.2 mph - N/A   Overcast
10:32 PM 32.0 °F 23.6 °F - N/A% 29.77 in 2.5 mi NE 10.4 mph - N/A   Overcast
10:56 PM 32.0 °F 24.8 °F - N/A% 29.78 in 2.0 mi ENE 8.1 mph - N/A   Overcast
11:56 PM 32.0 °F 23.6 °F - N/A% 29.80 in 3.0 mi ENE 10.4 mph - N/A   Overcast